Tracking 31027 objects as of 19-Jul-2025
HD Live streaming from Space Station
objects crossing your sky now

STARLINK-3506

Track STARLINK-3506 now!
10-day predictions
STARLINK-3506 is classified as:


NORAD ID: 51751
Int'l Code: 2022-016AP
Perigee: 546.2 km
Apogee: 547.6 km
Inclination: 53.2 °
Period: 95.4 minutes
Semi major axis: 6917 km
RCS: Unknown
Launch date: February 21, 2022
Source: United States (US)
Launch site: AIR FORCE EASTERN TEST RANGE (AFETR)
Your satellite tracking list
Your tracking list is empty




NASA's NSSDC Master Catalog

Two Line Element Set (TLE):
1 51751U 22016AP  25199.48799304 -.00000557  00000-0 -16930-4 0  9992
2 51751  53.2174 280.5060 0001050  85.0192 275.0920 15.08837385188342
Source of the keplerian elements: AFSPC